sat.trackr.live / text

‹ back to catalog

STARLINK-36876

NORAD 67902 · 2026-035Z

PAYLOAD ACTIVE UNKNOWN

§ Identity

Operator
Country
US
Launch date
2026-02-21
Launch site
AFWTR
Launch vehicle
Mass (kg)
RCS (m²)

Purposes: comms

External: N2YO · Heavens-Above · Gunter

§ Orbital elements

Epoch: 2026-05-24T18:52:57.449856Z

Period
93.91 min
Inclination
97.2852°
Eccentricity
0.0001752
Mean motion
15.33452373 rev/d
Perigee alt
464.3 km
Apogee alt
466.7 km
Semi-major
6,843.7 km
B*
7.2062e-4
RAAN
78.3727°
Arg perigee
97.6341°
Mean anomaly
262.5101°
Rev number
1,565

§ Raw data

STARLINK-368761 67902U 26035Z   26144.78677604  .00023267  00000+0  72062-3 0  99912 67902  97.2852  78.3727 0001752  97.6341 262.5101 15.33452373 15658

JSON: /api/v1/satellites/67902 · /tle

For live sub-satellite position, see the globe view (requires WebGL).

§ Visibility from observer

Set your observer location to see the next 7 days of passes ≥ 10°. The values pass through the URL so the page stays shareable.

No JS? Fill the form by hand. The geolocation button needs JavaScript.